Weather reports worldwide

Advertisment
Düsseldorf, Germany (10400): temperature & dewpoint: 08.11.2018 13:00:00 - 14.11.2018 13:00:00 (CET)Düsseldorf, Germany (10400): temperature 5cm & temperature -5cm: 08.11.2018 13:00:00 - 14.11.2018 13:00:00 (CET)Düsseldorf, Germany (10400): temperature -20cm & temperature -100cm: 08.11.2018 13:00:00 - 14.11.2018 13:00:00 (CET)Düsseldorf, Germany (10400): wind speed & gusts: 08.11.2018 13:00:00 - 14.11.2018 13:00:00 (CET)Düsseldorf, Germany (10400): wind direction: 08.11.2018 13:00:00 - 14.11.2018 13:00:00 (CET)Düsseldorf, Germany (10400): reduced air pressure: 08.11.2018 13:00:00 - 14.11.2018 13:00:00 (CET)Düsseldorf, Germany (10400): visibility: 08.11.2018 13:00:00 - 14.11.2018 13:00:00 (CET)Düsseldorf, Germany (10400): sunshine duration: 08.11.2018 13:00:00 - 14.11.2018 13:00:00 (CET)Düsseldorf, Germany (10400): precipitation: 08.11.2018 13:00:00 - 14.11.2018 13:00:00 (CET)
Date & Time tt [°C] td [°C] tt 5cm [°C] tt -5cm [°C] tt -20cm [°C] tt -100cm [°C] ff [km/h] ff [kn] fx [km/h] fx [kn] dd ppp [hPa] vv [km] sd [min] rr [mm]
14.11.2018 13:00:00 10,8 6,5 12,8 10,6 8,6 11,7 14 8 25 14 SSE 1028,6 20 60 0,0
14.11.2018 12:00:00 10,3 6,3 11,4 9,7 8,2 11,7 18 10 25 13 S 1029,1 18 60 0,0
14.11.2018 11:00:00 9,8 6,5 10,5 8,4 7,9 11,7 17 9 23 13 SSE 1029,5 23 60 0,0
14.11.2018 10:00:00 8,3 5,8 8,5 7,0 7,8 11,7 18 10 31 17 SSE 1029,5 26 60 0,0
14.11.2018 09:00:00 7,2 5,2 6,6 6,2 7,9 11,7 21 11 29 16 SSE 1029,4 10 24 0,0
14.11.2018 08:00:00 6,6 5,1 5,5 6,0 8,0 11,7 22 12 33 18 SSE 1028,8 35 0 0,0
14.11.2018 07:00:00 6,6 5,1 5,4 6,1 8,1 11,7 21 11 31 17 SSE 1028,9 10 0 0,0
14.11.2018 06:00:00 6,9 5,3 5,5 6,1 8,2 11,7 22 12 30 16 SSE 1028,8 10 0 0,0
14.11.2018 05:00:00 7,0 5,4 5,7 6,2 8,3 11,7 24 13 29 16 SSE 1029,3 10 0 0,0
14.11.2018 04:00:00 7,1 5,5 5,6 6,2 8,4 11,7 18 10 25 14 SSE 1029,7 10 0 0,0
14.11.2018 03:00:00 6,6 5,2 5,0 6,3 8,5 11,7 16 9 23 12 SSE 1029,9 10 0 0,0
14.11.2018 02:00:00 7,1 5,7 5,6 6,2 8,7 11,7 18 10 22 12 SSE 1029,7 50 0 0,0
14.11.2018 01:00:00 6,7 5,3 4,5 6,3 9,0 11,7 13 7 18 10 SSE 1029,9 50 0 0,0
14.11.2018 00:00:00 6,2 5,1 2,6 6,6 9,2 11,7 13 7 15 8 SSE 1029,7 10 0 0,0
13.11.2018 23:00:00 8,0 5,7 5,5 7,0 9,4 11,7 11 6 21 11 S 1029,3 10 0 0,0
13.11.2018 22:00:00 7,4 5,2 4,2 7,4 9,6 11,7 15 8 29 16 SSW 1029,2 10 0 0,0
13.11.2018 21:00:00 7,6 5,5 4,8 7,7 9,9 11,7 16 9 31 17 SSW 1028,6 10 0 0,0
13.11.2018 20:00:00 8,7 6,2 6,5 8,1 10,1 11,7 18 10 26 14 SSW 1028,2 10 0 0,0
13.11.2018 19:00:00 9,2 6,4 7,4 8,4 10,4 11,7 18 10 27 14 SSW 1027,8 10 0 0,0
13.11.2018 18:00:00 9,4 6,3 7,5 9,0 10,6 11,7 21 11 26 14 SW 1027,4 10 0 0,0
13.11.2018 17:00:00 11,0 6,5 9,1 10,0 10,8 11,7 18 10 35 19 SW 1026,5 10 18 0,0
13.11.2018 16:00:00 12,6 6,6 11,8 10,9 10,8 11,7 24 13 42 23 WSW 1025,6 60 33 0,0
13.11.2018 15:00:00 12,7 6,4 12,0 11,1 10,7 11,7 24 13 46 25 WSW 1024,8 60 18 0,0
13.11.2018 14:00:00 13,1 6,6 12,5 11,3 10,6 11,7 32 17 48 26 WSW 1024,3 50 19 0,0
13.11.2018 13:00:00 13,2 7,1 13,1 11,1 10,4 11,7 35 19 54 29 SW 1023,6 55 11 0,0
13.11.2018 12:00:00 12,5 7,0 12,1 10,7 10,3 11,7 37 20 59 32 SW 1023,1 10 4 0,0
13.11.2018 11:00:00 12,3 7,8 12,0 10,4 10,2 11,7 26 14 37 20 SW 1022,9 10 8 0,0
13.11.2018 10:00:00 11,6 7,9 11,4 9,6 10,1 11,7 26 14 36 20 SSW 1022,6 10 23 0,0
13.11.2018 09:00:00 10,7 7,5 10,0 9,3 10,2 11,6 24 13 38 21 SW 1022,3 10 0 0,0
13.11.2018 08:00:00 10,6 7,0 9,3 9,0 10,3 11,6 15 8 23 13 S 1021,5 10 0 0,0
13.11.2018 07:00:00 10,6 7,1 9,1 9,4 10,4 11,6 13 7 23 13 S 1020,6 10 0 0,0
13.11.2018 06:00:00 10,6 7,5 9,5 9,5 10,4 11,6 17 9 24 13 S 1019,9 35 0 0,0
13.11.2018 05:00:00 10,6 7,8 9,7 9,5 10,5 11,6 17 9 22 12 S 1019,8 30 0 0,0
13.11.2018 04:00:00 10,2 7,9 9,0 9,5 10,6 11,6 11 6 18 10 S 1019,5 10 0 0,0
13.11.2018 03:00:00 9,6 8,3 8,7 9,6 10,7 11,6 13 7 18 10 SSW 1019,8 10 0 0,0
13.11.2018 02:00:00 10,1 8,5 9,1 9,8 10,8 11,6 11 6 16 9 SSE 1019,0 10 0 0,0
13.11.2018 01:00:00 9,8 8,2 8,6 9,9 11,0 11,6 11 6 15 8 S 1019,3 10 0 0,0
13.11.2018 00:00:00 10,3 8,5 9,4 10,2 11,1 11,6 11 6 16 9 S 1019,4 10 0 0,0
12.11.2018 23:00:00 10,0 8,7 9,1 10,5 11,2 11,6 11 6 15 8 SSW 1018,9 15 0 0,0
12.11.2018 22:00:00 10,3 9,1 9,2 10,8 11,3 11,6 9 5 15 8 SW 1018,6 10 0 0,0
12.11.2018 21:00:00 11,0 10,5 10,6 11,1 11,4 11,6 9 5 16 9 WSW 1018,4 10 0 0,4
12.11.2018 20:00:00 11,2 10,5 10,9 11,2 11,5 11,6 9 5 20 11 WSW 1018,1 3,5 0 0,1
12.11.2018 19:00:00 11,4 9,9 11,0 11,4 11,6 11,6 9 5 15 8 SW 1017,3 10 0 0,0
12.11.2018 18:00:00 11,4 10,0 11,0 11,5 11,6 11,6 9 5 13 7 WSW 1016,3 30 0 0,0
12.11.2018 17:00:00 11,6 10,0 11,3 11,9 11,7 11,6 8 4 15 8 WSW 1014,8 10 0 0,0
12.11.2018 16:00:00 12,0 10,1 11,9 12,3 11,7 11,6 11 6 18 10 W 1014,3 10 0 0,0
12.11.2018 15:00:00 12,3 10,5 12,4 12,6 11,6 11,5 16 9 25 14 W 1013,5 9 0 0,0
12.11.2018 14:00:00 14,1 11,9 13,6 13,0 11,4 11,5 11 6 16 9 W 1012,5 10 0 0,0
12.11.2018 13:00:00 14,8 12,2 15,2 12,9 11,1 11,5 4 2 16 9 - 1012,0 10 0 0,0
12.11.2018 12:00:00 13,9 11,5 13,9 12,2 10,9 11,5 11 6 21 11 SW 1012,0 10 0 0,0
12.11.2018 11:00:00 13,1 11,0 13,1 11,6 10,7 11,5 15 8 22 12 SSE 1011,8 10 0 0,0
12.11.2018 10:00:00 11,6 10,2 11,6 10,7 10,7 11,5 4 2 9 5 - 1011,8 10 0 0,0
12.11.2018 09:00:00 11,2 10,1 10,6 10,5 10,6 11,5 8 4 18 10 E 1012,2 10 0 0,2
12.11.2018 08:00:00 11,1 10,1 10,5 10,5 10,6 11,5 11 6 26 14 SSE 1012,7 16 0 0,5
12.11.2018 07:00:00 11,3 10,0 10,5 10,5 10,7 11,5 17 9 25 14 SSE 1012,4 30 0 0,4
12.11.2018 06:00:00 11,2 10,0 10,5 10,4 10,7 11,5 15 8 28 15 SSE 1012,5 10 0 0,2
12.11.2018 05:00:00 11,3 10,0 10,5 10,4 10,7 11,5 17 9 34 18 SSE 1012,7 30 0 0,1
12.11.2018 04:00:00 11,1 9,8 10,3 10,3 10,7 11,5 24 13 35 19 SSE 1012,3 10 0 0,5
12.11.2018 03:00:00 11,0 9,7 10,2 10,3 10,7 11,5 15 8 29 16 S 1013,2 10 0 0,4
12.11.2018 02:00:00 11,0 9,4 10,1 10,3 10,8 11,5 16 9 24 13 SSE 1013,1 10 0 0,1
12.11.2018 01:00:00 11,1 9,4 10,4 10,4 10,9 11,5 16 9 21 11 SSE 1012,8 10 0 0,0
12.11.2018 00:00:00 11,7 9,0 11,1 10,6 10,9 11,4 17 9 24 13 SSE 1012,8 55 0 0,0
11.11.2018 23:00:00 11,6 9,3 10,9 10,6 11,0 11,4 15 8 23 13 SSE 1012,1 10 0 0,0
11.11.2018 22:00:00 11,6 9,7 10,8 10,8 11,0 11,4 13 7 28 15 S 1011,7 10 0 0,7
11.11.2018 21:00:00 12,6 9,1 10,7 10,9 11,0 11,4 13 7 23 12 S 1010,9 10 0 0,6
11.11.2018 20:00:00 12,4 9,9 11,0 11,0 11,1 11,4 15 8 31 17 SSE 1009,7 10 0 0,3
11.11.2018 19:00:00 13,0 9,6 12,1 11,1 11,1 11,4 19 10 42 23 SSE 1009,4 40 0 0,0
11.11.2018 18:00:00 12,7 10,0 11,9 11,1 11,1 11,4 22 12 29 16 SSE 1008,7 10 0 0,1
11.11.2018 17:00:00 12,5 9,9 11,6 11,1 11,2 11,4 18 10 29 16 SSE 1008,6 10 0 0,0
11.11.2018 16:00:00 12,6 9,0 11,8 11,3 11,2 11,4 24 13 43 23 S 1008,4 10 0 0,1
11.11.2018 15:00:00 13,2 9,6 11,4 11,6 11,2 11,4 27 15 38 20 SSW 1008,0 25 0 0,3
11.11.2018 14:00:00 14,3 8,6 13,5 11,9 11,1 11,4 21 12 31 17 S 1007,5 60 0 0,0
11.11.2018 13:00:00 14,9 7,9 14,4 12,0 10,9 11,4 21 12 37 20 S 1007,4 60 0 0,0
11.11.2018 12:00:00 14,5 8,1 14,7 11,9 10,7 11,4 26 14 44 24 S 1006,9 10 20 0,0
11.11.2018 11:00:00 13,7 8,1 13,3 11,1 10,6 11,4 26 14 42 23 S 1006,4 10 13 0,0
11.11.2018 10:00:00 12,8 8,2 12,3 10,6 10,6 11,4 24 13 39 21 S 1006,2 10 1 0,0
11.11.2018 09:00:00 12,7 8,1 12,1 10,4 10,6 11,3 28 15 37 20 S 1005,7 10 0 0,0
11.11.2018 08:00:00 11,7 8,7 10,5 10,3 10,6 11,3 21 11 37 20 S 1004,9 10 0 0,2
11.11.2018 07:00:00 12,5 8,3 11,8 10,4 10,7 11,3 27 14 40 22 SSE 1004,4 50 0 0,0
11.11.2018 06:00:00 12,2 8,7 11,6 10,4 10,7 11,3 22 12 35 19 SSE 1004,4 10 0 0,0
11.11.2018 05:00:00 12,4 8,9 11,6 10,4 10,8 11,3 22 12 40 22 SSE 1004,2 10 0 0,0
11.11.2018 04:00:00 12,3 9,0 11,6 10,5 10,8 11,3 26 14 39 21 S 1004,3 55 0 0,0
11.11.2018 03:00:00 12,2 9,6 11,0 10,8 10,9 11,3 24 13 35 19 SSE 1004,3 60 0 0,0
11.11.2018 02:00:00 12,6 9,9 11,7 10,8 11,0 11,3 19 11 36 20 SSE 1004,0 60 0 0,0
11.11.2018 01:00:00 12,6 10,1 11,5 11,1 11,0 11,3 22 12 34 18 SSE 1004,1 10 0 0,0
11.11.2018 00:00:00 12,8 11,1 11,9 11,3 11,0 11,3 16 9 28 15 SSE 1004,2 40 0 0,0
10.11.2018 23:00:00 12,8 10,9 11,7 11,3 11,0 11,3 24 13 32 17 SSE 1004,0 10 0 0,2
10.11.2018 22:00:00 12,8 11,5 11,9 11,4 10,9 11,3 21 12 36 20 SSE 1003,8 15 0 1,6
10.11.2018 21:00:00 13,0 11,3 12,0 11,4 10,9 11,3 21 11 37 20 SSE 1003,2 10 0 0,5
10.11.2018 20:00:00 13,9 10,7 12,3 11,4 10,9 11,3 24 13 42 23 S 1003,1 10 0 0,0
10.11.2018 19:00:00 14,3 10,5 13,2 11,4 10,9 11,3 26 14 40 21 S 1002,9 60 0 0,0
10.11.2018 18:00:00 13,4 11,1 12,2 11,5 10,8 11,3 16 9 32 17 S 1002,9 10 0 0,3
10.11.2018 17:00:00 13,7 11,2 12,9 11,6 10,8 11,3 22 12 34 18 SSE 1002,7 10 0 0,0
10.11.2018 16:00:00 13,2 11,4 12,4 11,7 10,7 11,3 24 13 35 19 SSE 1002,3 10 0 0,2
10.11.2018 15:00:00 12,9 11,5 12,2 11,7 10,5 11,3 19 11 28 15 SSE 1003,0 20 0 0,6
10.11.2018 14:00:00 12,4 11,4 12,0 11,4 10,4 11,3 19 10 31 17 SSE 1003,4 14 0 1,6
10.11.2018 13:00:00 12,3 11,2 11,9 11,2 10,2 11,3 19 10 35 19 SSE 1003,9 12 0 0,7
10.11.2018 12:00:00 13,5 10,2 12,3 10,9 10,1 11,3 23 12 38 20 SSE 1004,1 35 0 0,0
10.11.2018 11:00:00 13,1 9,5 12,6 10,5 10,0 11,3 22 12 41 22 SSE 1004,1 10 0 0,0
10.11.2018 10:00:00 12,7 9,1 12,1 10,3 9,9 11,3 24 13 45 24 SSE 1003,7 10 0 0,0
10.11.2018 09:00:00 12,2 8,9 10,9 10,1 9,8 11,3 27 14 45 24 SSE 1003,6 30 0 0,1
10.11.2018 08:00:00 12,0 8,9 10,4 10,0 9,8 11,3 28 15 46 25 SSE 1003,0 20 0 0,6
10.11.2018 07:00:00 12,7 8,5 10,4 9,9 9,7 11,3 29 16 49 27 SSE 1003,1 10 0 0,2
10.11.2018 06:00:00 14,0 7,3 13,0 9,8 9,7 11,3 29 16 48 26 SSE 1003,0 10 0 0,0
10.11.2018 05:00:00 13,5 7,5 12,7 9,6 9,6 11,3 30 16 47 25 SSE 1003,8 27 0 0,0
10.11.2018 04:00:00 12,8 7,6 12,0 9,4 9,6 11,3 24 13 34 18 SSE 1004,5 10 0 0,0
10.11.2018 03:00:00 12,4 7,7 11,2 9,2 9,6 11,3 20 11 36 19 SSE 1005,5 28 0 0,0
10.11.2018 02:00:00 12,3 7,7 11,2 9,1 9,7 11,3 21 11 34 18 SSE 1006,3 10 0 0,0
10.11.2018 01:00:00 12,4 7,6 11,2 9,2 9,7 11,3 24 13 37 20 SSE 1006,9 10 0 0,0
10.11.2018 00:00:00 12,2 8,0 10,7 9,3 9,8 11,3 16 9 29 16 SSE 1007,8 10 0 0,0
09.11.2018 23:00:00 12,3 8,5 11,1 9,4 9,8 11,3 24 13 35 19 SSE 1008,5 10 0 0,0
09.11.2018 22:00:00 11,9 8,3 10,3 9,4 9,9 11,3 16 9 31 17 SSE 1009,3 10 0 0,0
09.11.2018 21:00:00 12,4 8,3 10,7 9,6 10,0 11,3 18 10 29 16 SSE 1009,7 10 0 0,0
09.11.2018 20:00:00 12,9 8,4 11,1 9,9 10,1 11,3 21 11 35 19 SSE 1010,1 10 0 0,0
09.11.2018 19:00:00 13,3 8,4 12,1 10,1 10,1 11,3 23 12 33 18 SSE 1010,8 40 0 0,0
09.11.2018 18:00:00 13,7 8,3 12,5 10,3 10,1 11,3 17 9 26 14 SSE 1011,1 50 0 0,0
09.11.2018 17:00:00 13,9 8,3 12,4 10,6 10,1 11,3 18 10 25 13 SSE 1010,9 10 0 0,0
09.11.2018 16:00:00 14,5 8,0 13,5 11,1 10,0 11,3 17 9 26 14 SSE 1011,2 45 0 0,0
09.11.2018 15:00:00 14,4 8,3 13,7 11,6 9,8 11,3 15 8 25 14 SSE 1011,6 10 9 0,0
09.11.2018 14:00:00 14,6 8,2 14,7 11,7 9,5 11,3 15 8 28 15 SSE 1012,2 35 48 0,0
09.11.2018 13:00:00 13,8 8,0 14,4 11,3 9,1 11,3 21 11 29 16 SSE 1013,1 30 55 0,0
09.11.2018 12:00:00 12,3 7,8 12,0 10,0 8,8 11,3 19 10 31 17 SSE 1013,9 30 27 0,0
09.11.2018 11:00:00 11,3 7,9 11,1 9,0 8,6 11,3 16 9 34 18 SSE 1014,3 10 20 0,0
09.11.2018 10:00:00 11,1 8,0 10,9 8,4 8,5 11,3 18 10 29 16 SSE 1014,5 10 51 0,0
09.11.2018 09:00:00 10,1 7,7 9,1 7,6 8,5 11,3 16 9 34 18 SSE 1014,6 10 0 0,0
09.11.2018 08:00:00 9,9 7,5 8,3 7,4 8,5 11,3 16 9 26 14 SSE 1014,7 10 0 0,0
09.11.2018 07:00:00 10,0 7,3 8,6 7,5 8,5 11,3 18 10 24 13 SSE 1014,4 10 0 0,0
09.11.2018 06:00:00 10,2 7,3 8,9 7,4 8,6 11,3 15 8 23 13 SSE 1014,5 10 0 0,0
09.11.2018 05:00:00 7,1 5,9 4,5 7,4 8,6 11,3 2 1 5 3 - 1014,9 10 0 0,0
09.11.2018 04:00:00 7,9 6,5 7,5 7,6 8,6 11,3 4 2 9 5 NNW 1015,4 10 0 0,0
09.11.2018 03:00:00 8,1 6,2 7,4 7,3 8,6 11,3 9 5 13 7 ENE 1015,7 10 0 0,0
09.11.2018 02:00:00 9,4 6,6 7,8 6,9 8,7 11,3 11 6 16 9 E 1016,5 10 0 0,0
09.11.2018 01:00:00 8,2 5,7 5,5 6,7 8,8 11,3 5 3 9 5 NE 1017,3 10 0 0,0
09.11.2018 00:00:00 7,8 5,7 4,9 6,7 9,0 11,2 9 5 16 9 E 1018,0 35 0 0,0
08.11.2018 23:00:00 6,5 4,8 2,8 6,6 9,2 11,2 6 3 13 7 E 1018,7 35 0 0,0
08.11.2018 22:00:00 6,0 4,0 2,4 6,9 9,5 11,2 11 6 36 19 E 1019,2 10 0 0,0
08.11.2018 21:00:00 6,5 3,6 4,3 7,2 9,9 11,2 13 7 29 15 ENE 1019,6 10 0 0,0
08.11.2018 20:00:00 7,4 4,0 4,0 7,6 10,2 11,2 11 6 18 10 ENE 1020,0 40 0 0,0
08.11.2018 19:00:00 6,1 4,2 1,7 8,3 10,6 11,2 8 4 15 8 E 1020,3 10 0 0,0
08.11.2018 18:00:00 6,6 4,4 2,9 9,4 11,0 11,2 10 5 15 8 ENE 1020,5 50 0 0,0
08.11.2018 17:00:00 11,1 4,8 7,3 11,2 11,2 11,2 5 3 13 7 ENE 1020,7 10 30 0,0
08.11.2018 16:00:00 12,7 5,8 14,1 13,0 11,1 11,2 8 4 13 7 E 1021,0 10 60 0,0
08.11.2018 15:00:00 13,5 3,8 16,0 13,3 10,9 11,2 3 2 5 3 NNE 1021,4 55 50 0,0
08.11.2018 14:00:00 13,2 5,1 14,7 12,9 10,7 11,2 4 2 8 4 - 1021,8 10 37 0,0
08.11.2018 13:00:00 13,0 6,7 15,0 12,8 10,3 11,2 3 1 13 7 N 1022,2 50 33 0,0

tt = temperature
td = dewpoint
tt 5cm = temperature 5cm
tt -5cm = temperature -5cm
tt -20cm = temperature -20cm
tt -100cm = temperature -100cm
ff = wind speed
fx = gusts
dd = wind direction
ppp = reduced air pressure
vv = visibility
sd = sunshine duration
rr = precipitation

Next stations